Date,TemperatureHighF,TemperatureAvgF,TemperatureLowF,DewpointHighF,DewpointAvgF,DewpointLowF,HumidityHigh,HumidityAvg,HumidityLow,PressureMaxIn,PressureMinIn,WindSpeedMaxMPH,WindSpeedAvgMPH,GustSpeedMaxMPH,PrecipitationSumIn
2013-9-1,77.0,69.3,59.8,63.5,59.3,55.0,86,71,58,29.91,29.80,5,0,5,0.00
2013-9-2,78.8,70.9,62.3,62.8,58.9,55.6,80,66,54,29.96,29.87,4,0,4,0.00
2013-9-3,72.4,66.3,62.8,65.2,60.6,56.8,89,82,74,30.04,29.95,4,0,4,0.20
2013-9-4,70.9,65.2,60.7,63.4,60.0,57.2,90,84,72,30.07,30.00,5,1,5,0.02
2013-9-5,67.3,63.4,60.8,63.1,59.4,57.7,92,87,80,30.06,29.94,5,1,5,0.24
2013-9-6,70.2,64.3,61.6,65.1,61.3,59.1,93,90,83,30.13,29.95,5,1,5,1.28
2013-9-7,70.2,65.0,61.4,63.4,60.4,57.2,90,85,74,30.12,30.03,5,1,5,0.01
2013-9-8,75.2,66.5,58.3,65.2,59.9,55.6,93,80,65,30.12,30.04,2,0,2,0.00
2013-9-9,73.6,65.0,59.4,64.2,59.2,56.0,90,82,68,30.09,30.00,4,1,4,0.00
2013-9-10,74.9,66.4,57.4,64.4,59.7,53.9,91,79,69,30.01,29.90,5,1,5,0.00
2013-9-11,66.6,65.4,63.4,58.4,57.3,56.7,79,75,73,29.92,29.91,1,0,1,0.00
2013-9-14,68.0,64.9,60.8,61.7,59.6,57.3,88,83,79,29.81,29.75,3,0,3,0.00
2013-9-15,65.9,62.1,59.4,62.8,59.0,56.3,92,89,86,29.83,29.73,5,1,5,0.12
2013-9-16,68.8,62.7,59.6,62.1,58.3,53.8,92,85,78,29.95,29.82,6,2,6,0.01
2013-9-17,64.1,60.4,58.0,56.5,54.1,52.8,84,80,74,29.95,29.88,4,0,4,0.00
2013-9-18,67.5,61.7,56.3,58.1,54.1,50.8,88,77,62,30.09,29.95,5,1,5,0.00
2013-9-19,72.7,63.0,52.0,57.5,52.8,47.8,86,70,52,30.06,29.77,4,1,4,0.00
2013-9-20,73.1,63.9,56.3,58.2,54.7,50.2,86,72,59,29.77,29.61,5,1,5,0.14
2013-9-21,67.0,61.9,57.6,59.0,55.7,53.4,88,80,70,29.73,29.65,6,1,6,0.01
2013-9-22,62.6,59.1,56.7,56.7,54.0,51.6,88,83,70,29.74,29.59,8,3,8,0.26
2013-9-23,62.3,57.7,55.6,56.7,53.2,49.5,90,85,77,29.98,29.74,9,2,9,0.16
2013-9-24,65.0,57.7,53.3,54.7,51.0,48.2,88,79,65,29.97,29.84,5,1,5,0.03
2013-9-25,59.4,53.9,50.4,52.5,48.8,46.2,89,83,68,30.04,29.87,7,1,7,0.09
2013-9-26,60.3,53.9,47.9,53.0,48.9,45.2,91,84,73,30.13,30.03,4,1,4,0.00
2013-9-27,58.5,55.5,52.9,53.8,51.0,47.6,88,85,81,30.13,29.85,6,2,6,0.09
2013-9-28,60.1,56.6,52.9,58.2,54.0,50.6,93,91,86,29.85,29.34,11,2,11,1.20
2013-9-29,55.6,54.1,52.2,52.0,50.9,49.1,92,89,85,29.57,29.17,11,3,11,0.54
2013-9-30,59.6,53.7,50.2,55.3,49.6,46.7,92,86,81,29.93,29.43,8,3,8,0.10